Location: Unspecified
(29.9680°N, 0.0000°E)
Time: 15:21:53
(UTC+00:00)

Explorer 7 - Pass Details

Date: 30 June 2019
Orbit: 485 x 680 km, 50.3° (Epoch: 21 August)

Event Time Altitude Azimuth Distance (km) Brightness Sun altitude
Rises 05:57:03 0° 265° (W) 2,611 9.7 10.0°
Reaches altitude 10° 05:59:47 10° 286° (WNW) 1,759 9.0 10.6°
Maximum altitude 06:02:31 18° 329° (NNW) 1,381 8.8 11.1°
Drops below altitude 10° 06:05:22 10° 12° (NNE) 1,840 10.0 11.7°
Sets 06:08:20 0° 32° (NNE) 2,784 11.3 12.3°
